Tracking 28790 objects as of 19-Apr-2024
HD Live streaming from Space Station
objects crossing your sky now

ATLAS 55E R/B

Track ATLAS 55E R/B now!
10-day predictions


NORAD ID: 16137
Int'l Code: 1985-093B
Perigee: 1,202.9 km
Apogee: 20,095.0 km
Inclination: 64.1 °
Period: 368.3 minutes
Semi major axis: 17019 km
RCS: 2.2883 m2 (large)
Launch date: October 9, 1985
Source: United States (US)
Launch site: AIR FORCE WESTERN TEST RANGE (AFWTR)

Note: This is a ROCKET BODY
Your satellite tracking list
Your tracking list is empty




NASA's NSSDC Master Catalog

Two Line Element Set (TLE):
1 16137U 85093B   24109.59192300  .00000069  00000-0  55187-2 0  9991
2 16137  64.1455 303.8015 5550006 339.0956   5.0705  3.90990845550195
Source of the keplerian elements: AFSPC